Time,TemperatureF,DewpointF,PressureIn,WindDirection,WindDirectionDegrees,WindSpeedMPH,WindSpeedGustMPH,Humidity,HourlyPrecipIn,Conditions,Clouds,dailyrainin,SoftwareType,DateUTC
2013-07-14 00:00:00,83.5,65.1,29.84,SSE,148,0.0,1.0,54,0.00,,SKC,0.00,VWS V14.01,2013-07-14 05:00:00,
2013-07-14 00:01:00,83.4,65.0,29.84,SSE,149,0.0,0.0,54,0.00,,SKC,0.00,VWS V14.01,2013-07-14 05:01:00,
2013-07-14 00:06:00,83.3,64.9,29.84,SSE,149,0.0,0.0,54,0.00,,SKC,0.00,VWS V14.01,2013-07-14 05:06:00,
2013-07-14 00:10:00,83.3,64.9,29.84,SSE,149,0.0,0.0,54,0.00,,SKC,0.00,VWS V14.01,2013-07-14 05:10:00,
2013-07-14 00:11:00,83.2,64.8,29.84,SSE,149,0.0,0.0,54,0.00,,SKC,0.00,VWS V14.01,2013-07-14 05:11:00,
2013-07-14 00:16:00,83.0,65.2,29.84,SSE,149,0.0,0.0,55,0.00,,SKC,0.00,VWS V14.01,2013-07-14 05:16:00,
2013-07-14 00:20:00,83.0,65.2,29.84,SSE,149,0.0,0.0,55,0.00,,SKC,0.00,VWS V14.01,2013-07-14 05:20:00,
2013-07-14 00:21:00,82.9,65.1,29.84,SSE,148,0.0,0.0,55,0.00,,SKC,0.00,VWS V14.01,2013-07-14 05:21:00,
2013-07-14 00:26:00,82.7,64.9,29.84,SSE,148,0.0,0.0,55,0.00,,SKC,0.00,VWS V14.01,2013-07-14 05:26:00,
2013-07-14 00:30:00,82.8,65.0,29.84,SSE,148,0.0,0.0,55,0.00,,SKC,0.00,VWS V14.01,2013-07-14 05:30:00,
2013-07-14 00:31:00,82.6,64.8,29.84,SSE,148,0.0,0.0,55,0.00,,SKC,0.00,VWS V14.01,2013-07-14 05:31:00,
2013-07-14 00:36:00,82.5,65.2,29.84,SSE,148,0.0,0.0,56,0.00,,SKC,0.00,VWS V14.01,2013-07-14 05:36:00,
2013-07-14 00:40:00,82.5,65.2,29.84,SSE,148,0.0,0.0,56,0.00,,SKC,0.00,VWS V14.01,2013-07-14 05:40:00,
2013-07-14 00:41:00,82.3,65.1,29.85,SSE,149,0.0,1.0,56,0.00,,SKC,0.00,VWS V14.01,2013-07-14 05:41:00,
2013-07-14 00:46:00,82.2,65.0,29.85,SSE,149,0.0,0.0,56,0.00,,SKC,0.00,VWS V14.01,2013-07-14 05:46:00,
2013-07-14 00:50:00,82.2,65.0,29.84,SSE,149,0.0,2.0,56,0.00,,SKC,0.00,VWS V14.01,2013-07-14 05:50:00,
2013-07-14 00:51:00,82.2,65.0,29.85,SSE,148,0.0,2.0,56,0.00,,SKC,0.00,VWS V14.01,2013-07-14 05:51:00,
2013-07-14 00:56:00,82.2,65.5,29.85,SSE,148,0.0,0.0,57,0.00,,SKC,0.00,VWS V14.01,2013-07-14 05:56:00,
2013-07-14 01:00:00,82.2,65.5,29.85,SSE,148,0.0,2.0,57,0.00,,SKC,0.00,VWS V14.01,2013-07-14 06:00:00,
2013-07-14 01:01:00,82.1,65.4,29.85,SSE,148,0.0,2.0,57,0.00,,SKC,0.00,VWS V14.01,2013-07-14 06:01:00,
2013-07-14 01:06:00,82.0,65.3,29.84,SSE,148,0.0,0.0,57,0.00,,SKC,0.00,VWS V14.01,2013-07-14 06:06:00,
2013-07-14 01:10:00,82.0,65.3,29.85,SSE,149,0.0,2.0,57,0.00,,SKC,0.00,VWS V14.01,2013-07-14 06:10:00,
2013-07-14 01:11:00,81.9,65.2,29.84,SSE,148,0.0,4.0,57,0.00,,SKC,0.00,VWS V14.01,2013-07-14 06:11:00,
2013-07-14 01:16:00,81.8,65.6,29.85,SSE,148,0.0,0.0,58,0.00,,SKC,0.00,VWS V14.01,2013-07-14 06:16:00,
2013-07-14 01:20:00,81.8,65.6,29.85,SSE,149,0.0,4.0,58,0.00,,SKC,0.00,VWS V14.01,2013-07-14 06:20:00,
2013-07-14 01:21:00,81.7,65.5,29.85,SSE,149,0.0,0.0,58,0.00,,SKC,0.00,VWS V14.01,2013-07-14 06:21:00,
2013-07-14 01:26:00,81.6,65.4,29.85,SSE,148,0.0,0.0,58,0.00,,SKC,0.00,VWS V14.01,2013-07-14 06:26:00,
2013-07-14 01:30:00,81.6,65.4,29.84,SSE,148,0.0,2.0,58,0.00,,SKC,0.00,VWS V14.01,2013-07-14 06:30:00,
2013-07-14 01:31:00,81.6,65.9,29.85,SSE,148,0.0,4.0,59,0.00,,SKC,0.00,VWS V14.01,2013-07-14 06:31:00,
2013-07-14 01:36:00,81.5,65.8,29.85,SSE,149,0.0,0.0,59,0.00,,SKC,0.00,VWS V14.01,2013-07-14 06:36:00,
2013-07-14 01:40:00,81.5,65.8,29.85,SSE,149,0.0,4.0,59,0.00,,SKC,0.00,VWS V14.01,2013-07-14 06:40:00,
2013-07-14 01:41:00,81.4,65.7,29.85,SSE,148,0.0,1.0,59,0.00,,SKC,0.00,VWS V14.01,2013-07-14 06:41:00,
2013-07-14 01:46:00,81.3,66.1,29.85,SSE,148,0.0,0.0,60,0.00,,SKC,0.00,VWS V14.01,2013-07-14 06:46:00,
2013-07-14 01:50:00,81.3,66.1,29.85,SSE,148,0.0,1.0,60,0.00,,SKC,0.00,VWS V14.01,2013-07-14 06:50:00,
2013-07-14 01:51:00,81.3,66.1,29.85,SSE,148,2.0,3.0,60,0.00,,SKC,0.00,VWS V14.01,2013-07-14 06:51:00,
2013-07-14 01:56:00,81.3,66.1,29.86,SSE,148,0.0,0.0,60,0.00,,SKC,0.00,VWS V14.01,2013-07-14 06:56:00,
2013-07-14 02:00:00,81.3,66.1,29.86,SSE,148,0.0,3.0,60,0.00,,SKC,0.00,VWS V14.01,2013-07-14 07:00:00,
2013-07-14 02:01:00,81.3,66.1,29.85,SSE,148,0.0,3.0,60,0.00,,SKC,0.00,VWS V14.01,2013-07-14 07:01:00,
2013-07-14 02:06:00,81.3,66.6,29.85,SSE,149,0.0,0.0,61,0.00,,SKC,0.00,VWS V14.01,2013-07-14 07:06:00,
2013-07-14 02:10:00,81.3,66.6,29.85,SSE,149,0.0,4.0,61,0.00,,SKC,0.00,VWS V14.01,2013-07-14 07:10:00,
2013-07-14 02:11:00,81.2,66.5,29.85,SSE,148,0.0,0.0,61,0.00,,SKC,0.00,VWS V14.01,2013-07-14 07:11:00,
2013-07-14 02:16:00,81.1,66.4,29.85,SSE,149,0.0,0.0,61,0.00,,SKC,0.00,VWS V14.01,2013-07-14 07:16:00,
2013-07-14 02:20:00,81.1,66.4,29.85,SSE,149,0.0,0.0,61,0.00,,SKC,0.00,VWS V14.01,2013-07-14 07:20:00,
2013-07-14 02:21:00,81.0,66.3,29.85,SSE,149,0.0,0.0,61,0.00,,SKC,0.00,VWS V14.01,2013-07-14 07:21:00,
2013-07-14 02:26:00,80.9,66.7,29.85,SSE,149,0.0,0.0,62,0.00,,SKC,0.00,VWS V14.01,2013-07-14 07:26:00,
2013-07-14 02:30:00,80.9,66.2,29.84,SSE,148,0.0,0.0,61,0.00,,SKC,0.00,VWS V14.01,2013-07-14 07:30:00,
2013-07-14 02:31:00,80.8,66.6,29.84,SSE,148,0.0,0.0,62,0.00,,SKC,0.00,VWS V14.01,2013-07-14 07:31:00,
2013-07-14 02:36:00,80.6,66.4,29.84,SSE,148,0.0,0.0,62,0.00,,SKC,0.00,VWS V14.01,2013-07-14 07:36:00,
2013-07-14 02:40:00,80.6,66.4,29.84,SSE,148,0.0,0.0,62,0.00,,SKC,0.00,VWS V14.01,2013-07-14 07:40:00,
2013-07-14 02:41:00,80.4,66.7,29.84,SSE,149,0.0,0.0,63,0.00,,SKC,0.00,VWS V14.01,2013-07-14 07:41:00,
2013-07-14 02:46:00,80.2,66.5,29.84,SSE,148,0.0,0.0,63,0.00,,SKC,0.00,VWS V14.01,2013-07-14 07:46:00,
2013-07-14 02:50:00,80.2,66.5,29.84,SSE,148,0.0,0.0,63,0.00,,SKC,0.00,VWS V14.01,2013-07-14 07:50:00,
2013-07-14 02:51:00,80.0,66.7,29.84,SSE,148,0.0,0.0,64,0.00,,SKC,0.00,VWS V14.01,2013-07-14 07:51:00,
2013-07-14 02:56:00,79.8,66.6,29.84,SSE,148,0.0,0.0,64,0.00,,SKC,0.00,VWS V14.01,2013-07-14 07:56:00,
2013-07-14 03:00:00,79.8,66.6,29.84,SSE,148,0.0,0.0,64,0.00,,SKC,0.00,VWS V14.01,2013-07-14 08:00:00,
2013-07-14 03:01:00,79.7,66.9,29.84,SSE,148,0.0,0.0,65,0.00,,SKC,0.00,VWS V14.01,2013-07-14 08:01:00,
2013-07-14 03:06:00,79.6,66.8,29.84,SSE,148,0.0,0.0,65,0.00,,SKC,0.00,VWS V14.01,2013-07-14 08:06:00,
2013-07-14 03:10:00,79.6,66.8,29.84,SSE,149,0.0,0.0,65,0.00,,SKC,0.00,VWS V14.01,2013-07-14 08:10:00,
2013-07-14 03:11:00,79.5,67.2,29.84,SSE,148,0.0,0.0,66,0.00,,SKC,0.00,VWS V14.01,2013-07-14 08:11:00,
2013-07-14 03:16:00,79.4,67.5,29.84,SSE,149,0.0,0.0,67,0.00,,SKC,0.00,VWS V14.01,2013-07-14 08:16:00,
2013-07-14 03:20:00,79.4,67.5,29.83,SSE,148,0.0,3.0,67,0.00,,SKC,0.00,VWS V14.01,2013-07-14 08:20:00,
2013-07-14 03:21:00,79.3,67.8,29.83,SSE,148,0.0,3.0,68,0.00,,SKC,0.00,VWS V14.01,2013-07-14 08:21:00,
2013-07-14 03:26:00,79.3,67.8,29.84,SSE,148,0.0,0.0,68,0.00,,SKC,0.00,VWS V14.01,2013-07-14 08:26:00,
2013-07-14 03:30:00,79.3,67.8,29.84,SSE,148,0.0,3.0,68,0.00,,SKC,0.00,VWS V14.01,2013-07-14 08:30:00,
2013-07-14 03:31:00,79.2,67.7,29.83,SSE,149,0.0,0.0,68,0.00,,SKC,0.00,VWS V14.01,2013-07-14 08:31:00,
2013-07-14 03:36:00,79.1,68.1,29.84,SSE,148,0.0,0.0,69,0.00,,SKC,0.00,VWS V14.01,2013-07-14 08:36:00,
2013-07-14 03:40:00,79.1,68.1,29.83,SSE,148,0.0,0.0,69,0.00,,SKC,0.00,VWS V14.01,2013-07-14 08:40:00,
2013-07-14 03:41:00,79.0,68.0,29.84,SSE,148,0.0,3.0,69,0.00,,SKC,0.00,VWS V14.01,2013-07-14 08:41:00,
2013-07-14 03:46:00,78.8,67.8,29.84,SSE,149,0.0,0.0,69,0.00,,SKC,0.00,VWS V14.01,2013-07-14 08:46:00,
2013-07-14 03:50:00,78.8,67.8,29.83,SSE,148,0.0,3.0,69,0.00,,SKC,0.00,VWS V14.01,2013-07-14 08:50:00,
2013-07-14 03:51:00,78.7,68.1,29.84,SSE,149,0.0,0.0,70,0.00,,SKC,0.00,VWS V14.01,2013-07-14 08:51:00,
2013-07-14 03:56:00,78.6,68.0,29.84,SSE,149,0.0,0.0,70,0.00,,SKC,0.00,VWS V14.01,2013-07-14 08:56:00,
2013-07-14 04:00:00,78.5,67.9,29.84,SSE,148,0.0,0.0,70,0.00,,SKC,0.00,VWS V14.01,2013-07-14 09:00:00,
2013-07-14 04:01:00,78.5,67.9,29.84,SSE,148,0.0,1.0,70,0.00,,SKC,0.00,VWS V14.01,2013-07-14 09:01:00,
2013-07-14 04:06:00,78.4,68.2,29.84,SSE,148,0.0,0.0,71,0.00,,SKC,0.00,VWS V14.01,2013-07-14 09:06:00,
2013-07-14 04:10:00,78.4,68.2,29.84,SSE,148,0.0,1.0,71,0.00,,SKC,0.00,VWS V14.01,2013-07-14 09:10:00,
2013-07-14 04:11:00,78.3,68.1,29.84,SSE,148,0.0,0.0,71,0.00,,SKC,0.00,VWS V14.01,2013-07-14 09:11:00,
2013-07-14 04:16:00,78.1,67.9,29.84,SSE,149,0.0,0.0,71,0.00,,SKC,0.00,VWS V14.01,2013-07-14 09:16:00,
2013-07-14 04:20:00,78.1,67.9,29.84,SSE,148,0.0,0.0,71,0.00,,SKC,0.00,VWS V14.01,2013-07-14 09:20:00,
2013-07-14 04:21:00,78.0,67.8,29.84,SSE,148,0.0,0.0,71,0.00,,SKC,0.00,VWS V14.01,2013-07-14 09:21:00,
2013-07-14 04:26:00,77.9,68.2,29.84,SSE,148,0.0,0.0,72,0.00,,SKC,0.00,VWS V14.01,2013-07-14 09:26:00,
2013-07-14 04:30:00,77.9,68.2,29.84,SSE,148,0.0,0.0,72,0.00,,SKC,0.00,VWS V14.01,2013-07-14 09:30:00,
2013-07-14 04:31:00,77.7,68.0,29.84,SSE,148,0.0,0.0,72,0.00,,SKC,0.00,VWS V14.01,2013-07-14 09:31:00,
2013-07-14 04:36:00,77.6,68.3,29.83,SSE,149,0.0,0.0,73,0.00,,SKC,0.00,VWS V14.01,2013-07-14 09:36:00,
2013-07-14 04:40:00,77.6,68.3,29.84,SSE,149,0.0,0.0,73,0.00,,SKC,0.00,VWS V14.01,2013-07-14 09:40:00,
2013-07-14 04:41:00,77.5,68.2,29.83,SSE,148,0.0,0.0,73,0.00,,SKC,0.00,VWS V14.01,2013-07-14 09:41:00,
2013-07-14 04:46:00,77.4,68.1,29.83,SSE,148,0.0,0.0,73,0.00,,SKC,0.00,VWS V14.01,2013-07-14 09:46:00,
2013-07-14 04:50:00,77.4,68.1,29.83,SSE,148,0.0,0.0,73,0.00,,SKC,0.00,VWS V14.01,2013-07-14 09:50:00,
2013-07-14 04:51:00,77.2,67.9,29.83,SSE,148,0.0,0.0,73,0.00,,SKC,0.00,VWS V14.01,2013-07-14 09:51:00,
2013-07-14 04:56:00,77.1,68.2,29.83,SSE,149,0.0,0.0,74,0.00,,SKC,0.00,VWS V14.01,2013-07-14 09:56:00,
2013-07-14 05:00:00,77.1,68.2,29.83,SSE,148,0.0,3.0,74,0.00,,SKC,0.00,VWS V14.01,2013-07-14 10:00:00,
2013-07-14 05:01:00,76.9,68.0,29.83,SSE,148,0.0,0.0,74,0.00,,SKC,0.00,VWS V14.01,2013-07-14 10:01:00,
2013-07-14 05:06:00,76.7,68.2,29.83,SSE,148,0.0,0.0,75,0.00,,SKC,0.00,VWS V14.01,2013-07-14 10:06:00,
2013-07-14 05:10:00,76.7,68.2,29.83,SSE,148,0.0,0.0,75,0.00,,SKC,0.00,VWS V14.01,2013-07-14 10:10:00,
2013-07-14 05:11:00,76.5,68.0,29.83,SSE,149,0.0,0.0,75,0.00,,SKC,0.00,VWS V14.01,2013-07-14 10:11:00,
2013-07-14 05:16:00,76.3,68.2,29.83,SSE,148,0.0,0.0,76,0.00,,SKC,0.00,VWS V14.01,2013-07-14 10:16:00,
2013-07-14 05:20:00,76.3,68.2,29.83,SSE,148,0.0,0.0,76,0.00,,SKC,0.00,VWS V14.01,2013-07-14 10:20:00,
2013-07-14 05:21:00,76.1,68.0,29.83,SSE,148,0.0,0.0,76,0.00,,SKC,0.00,VWS V14.01,2013-07-14 10:21:00,
2013-07-14 05:26:00,76.0,68.3,29.83,SSE,148,0.0,0.0,77,0.00,,SKC,0.00,VWS V14.01,2013-07-14 10:26:00,
2013-07-14 05:30:00,76.0,68.3,29.83,SSE,148,0.0,0.0,77,0.00,,SKC,0.00,VWS V14.01,2013-07-14 10:30:00,
2013-07-14 05:31:00,75.8,68.1,29.83,SSE,148,0.0,0.0,77,0.00,,SKC,0.00,VWS V14.01,2013-07-14 10:31:00,
2013-07-14 05:36:00,75.7,68.4,29.83,SSE,148,0.0,0.0,78,0.00,,SKC,0.00,VWS V14.01,2013-07-14 10:36:00,
2013-07-14 05:40:00,75.7,68.4,29.83,SSE,148,0.0,0.0,78,0.00,,SKC,0.00,VWS V14.01,2013-07-14 10:40:00,
2013-07-14 05:41:00,75.5,68.5,29.83,SSE,148,0.0,0.0,79,0.00,,SKC,0.00,VWS V14.01,2013-07-14 10:41:00,
2013-07-14 05:46:00,75.3,68.3,29.83,SSE,148,0.0,0.0,79,0.00,,SKC,0.00,VWS V14.01,2013-07-14 10:46:00,
2013-07-14 05:50:00,75.3,68.3,29.83,SSE,148,0.0,0.0,79,0.00,,SKC,0.00,VWS V14.01,2013-07-14 10:50:00,
2013-07-14 05:51:00,75.1,68.2,29.84,SSE,148,0.0,0.0,79,0.00,,SKC,0.00,VWS V14.01,2013-07-14 10:51:00,
2013-07-14 05:56:00,75.0,68.4,29.84,SSE,148,0.0,0.0,80,0.00,,SKC,0.00,VWS V14.01,2013-07-14 10:56:00,
2013-07-14 06:00:00,75.0,68.4,29.84,SSE,148,0.0,0.0,80,0.00,,SKC,0.00,VWS V14.01,2013-07-14 11:00:00,
2013-07-14 06:01:00,75.0,68.4,29.84,SSE,148,0.0,0.0,80,0.00,,SKC,0.00,VWS V14.01,2013-07-14 11:01:00,
2013-07-14 06:06:00,75.0,68.8,29.84,SSE,148,0.0,0.0,81,0.00,,SKC,0.00,VWS V14.01,2013-07-14 11:06:00,
2013-07-14 06:10:00,75.0,68.8,29.84,SSE,148,0.0,0.0,81,0.00,,SKC,0.00,VWS V14.01,2013-07-14 11:10:00,
2013-07-14 06:11:00,74.9,69.0,29.84,SSE,148,0.0,0.0,82,0.00,,SKC,0.00,VWS V14.01,2013-07-14 11:11:00,
2013-07-14 06:16:00,74.8,69.3,29.84,SSE,149,0.0,0.0,83,0.00,,SKC,0.00,VWS V14.01,2013-07-14 11:16:00,
2013-07-14 06:20:00,74.8,69.3,29.84,SSE,149,0.0,0.0,83,0.00,,SKC,0.00,VWS V14.01,2013-07-14 11:20:00,
2013-07-14 06:21:00,74.7,69.2,29.84,SSE,148,0.0,0.0,83,0.00,,SKC,0.00,VWS V14.01,2013-07-14 11:21:00,
2013-07-14 06:26:00,74.6,69.4,29.84,SSE,148,0.0,0.0,84,0.00,,SKC,0.00,VWS V14.01,2013-07-14 11:26:00,
2013-07-14 06:30:00,74.6,69.4,29.84,SSE,148,0.0,0.0,84,0.00,,SKC,0.00,VWS V14.01,2013-07-14 11:30:00,
2013-07-14 06:31:00,74.6,69.4,29.84,SSE,148,0.0,0.0,84,0.00,,SKC,0.00,VWS V14.01,2013-07-14 11:31:00,
2013-07-14 06:36:00,74.5,69.7,29.84,SSE,148,0.0,0.0,85,0.00,,SKC,0.00,VWS V14.01,2013-07-14 11:36:00,
2013-07-14 06:40:00,74.5,69.7,29.84,SSE,148,0.0,0.0,85,0.00,,SKC,0.00,VWS V14.01,2013-07-14 11:40:00,
2013-07-14 06:41:00,74.3,69.5,29.85,SSE,148,0.0,0.0,85,0.00,,SKC,0.00,VWS V14.01,2013-07-14 11:41:00,
2013-07-14 06:46:00,74.0,68.9,29.85,South,180,0.0,0.0,84,0.00,,SKC,0.00,VWS V14.01,2013-07-14 11:46:00,
2013-07-14 06:50:00,74.0,68.9,29.85,South,180,0.0,0.0,84,0.00,,SKC,0.00,VWS V14.01,2013-07-14 11:50:00,
2013-07-14 06:51:00,73.9,68.8,29.85,South,178,0.0,0.0,84,0.00,,SKC,0.00,VWS V14.01,2013-07-14 11:51:00,
2013-07-14 06:56:00,73.8,68.7,29.85,South,178,0.0,0.0,84,0.00,,SKC,0.00,VWS V14.01,2013-07-14 11:56:00,
2013-07-14 07:00:00,73.8,68.7,29.85,South,178,0.0,0.0,84,0.00,,SKC,0.00,VWS V14.01,2013-07-14 12:00:00,
2013-07-14 07:01:00,73.7,68.2,29.85,South,185,0.0,0.0,83,0.00,,SKC,0.00,VWS V14.01,2013-07-14 12:01:00,
2013-07-14 07:06:00,73.7,68.6,29.85,SSW,192,0.0,0.0,84,0.00,,SKC,0.00,VWS V14.01,2013-07-14 12:06:00,
2013-07-14 07:10:00,73.7,68.6,29.85,SSW,192,0.0,0.0,84,0.00,,SKC,0.00,VWS V14.01,2013-07-14 12:10:00,
2013-07-14 07:11:00,73.7,68.6,29.85,SSW,192,0.0,0.0,84,0.00,,SKC,0.00,VWS V14.01,2013-07-14 12:11:00,
2013-07-14 07:16:00,73.7,68.6,29.85,SSW,192,0.0,0.0,84,0.00,,SKC,0.00,VWS V14.01,2013-07-14 12:16:00,
2013-07-14 07:20:00,73.7,68.6,29.85,SSW,192,0.0,0.0,84,0.00,,SKC,0.00,VWS V14.01,2013-07-14 12:20:00,
2013-07-14 07:21:00,73.8,68.7,29.85,SSW,192,0.0,0.0,84,0.00,,SKC,0.00,VWS V14.01,2013-07-14 12:21:00,
2013-07-14 07:26:00,73.9,68.8,29.85,SSW,192,0.0,0.0,84,0.00,,SKC,0.00,VWS V14.01,2013-07-14 12:26:00,
2013-07-14 07:30:00,73.9,68.8,29.85,SSW,192,0.0,0.0,84,0.00,,SKC,0.00,VWS V14.01,2013-07-14 12:30:00,
2013-07-14 07:31:00,74.0,68.9,29.85,SSW,192,0.0,0.0,84,0.00,,SKC,0.00,VWS V14.01,2013-07-14 12:31:00,
2013-07-14 07:36:00,74.1,69.0,29.85,SSW,192,0.0,0.0,84,0.00,,SKC,0.00,VWS V14.01,2013-07-14 12:36:00,
2013-07-14 07:40:00,74.2,69.1,29.85,SSW,192,0.0,0.0,84,0.00,,SKC,0.00,VWS V14.01,2013-07-14 12:40:00,
2013-07-14 07:41:00,74.3,69.2,29.85,SSW,192,0.0,0.0,84,0.00,,SKC,0.00,VWS V14.01,2013-07-14 12:41:00,
2013-07-14 07:46:00,74.6,69.4,29.85,SSW,192,0.0,4.0,84,0.00,,SKC,0.00,VWS V14.01,2013-07-14 12:46:00,
2013-07-14 07:50:00,74.6,69.4,29.85,SSW,192,0.0,4.0,84,0.00,,SKC,0.00,VWS V14.01,2013-07-14 12:50:00,
2013-07-14 07:51:00,74.8,69.7,29.85,SSW,192,0.0,2.0,84,0.00,,SKC,0.00,VWS V14.01,2013-07-14 12:51:00,
2013-07-14 07:56:00,75.1,69.9,29.85,SSW,192,0.0,2.0,84,0.00,,SKC,0.00,VWS V14.01,2013-07-14 12:56:00,
2013-07-14 08:00:00,75.1,69.9,29.85,SSW,192,0.0,2.0,84,0.00,,SKC,0.00,VWS V14.01,2013-07-14 13:00:00,
2013-07-14 08:01:00,75.4,69.9,29.85,SSW,192,0.0,0.0,83,0.00,,SKC,0.00,VWS V14.01,2013-07-14 13:01:00,
2013-07-14 08:05:00,75.8,70.3,29.85,SSW,192,1.0,2.0,83,0.00,,SKC,0.00,VWS V14.01,2013-07-14 13:05:00,
2013-07-14 08:10:00,76.3,70.4,29.85,SSW,192,0.0,4.0,82,0.00,,SKC,0.00,VWS V14.01,2013-07-14 13:10:00,
2013-07-14 08:15:00,76.8,70.9,29.85,SSW,192,2.0,5.0,82,0.00,,SKC,0.00,VWS V14.01,2013-07-14 13:15:00,
2013-07-14 08:20:00,77.4,71.1,29.86,SSW,192,0.0,5.0,81,0.00,,SKC,0.00,VWS V14.01,2013-07-14 13:20:00,
2013-07-14 08:25:00,78.0,71.7,29.86,SSW,192,0.0,5.0,81,0.00,,SKC,0.00,VWS V14.01,2013-07-14 13:25:00,
2013-07-14 08:30:00,78.7,71.6,29.86,SSW,192,0.0,3.0,79,0.00,,SKC,0.00,VWS V14.01,2013-07-14 13:30:00,
2013-07-14 08:35:00,79.2,72.1,29.86,SSW,192,3.0,3.0,79,0.00,,SKC,0.00,VWS V14.01,2013-07-14 13:35:00,
2013-07-14 08:40:00,79.6,72.1,29.86,SSW,192,2.0,5.0,78,0.00,,SKC,0.00,VWS V14.01,2013-07-14 13:40:00,
2013-07-14 08:45:00,80.0,72.2,29.86,SSW,194,7.0,7.0,77,0.00,,SKC,0.00,VWS V14.01,2013-07-14 13:45:00,
2013-07-14 08:50:00,80.3,72.4,29.86,SSW,195,0.0,7.0,77,0.00,,SKC,0.00,VWS V14.01,2013-07-14 13:50:00,
2013-07-14 08:55:00,80.7,72.4,29.86,SSW,195,2.0,7.0,76,0.00,,SKC,0.00,VWS V14.01,2013-07-14 13:55:00,
2013-07-14 09:00:00,81.1,72.4,29.86,SSW,198,4.0,6.0,75,0.00,,SKC,0.00,VWS V14.01,2013-07-14 14:00:00,
2013-07-14 09:05:00,81.5,72.8,29.86,SSW,200,0.0,7.0,75,0.00,,SKC,0.00,VWS V14.01,2013-07-14 14:05:00,
2013-07-14 09:10:00,81.9,72.8,29.86,SSW,200,1.0,6.0,74,0.00,,SKC,0.00,VWS V14.01,2013-07-14 14:10:00,
2013-07-14 09:15:00,82.2,73.1,29.85,SSW,202,0.0,7.0,74,0.00,,SKC,0.00,VWS V14.01,2013-07-14 14:15:00,
2013-07-14 09:20:00,82.5,73.0,29.85,SSW,205,3.0,7.0,73,0.00,,SKC,0.00,VWS V14.01,2013-07-14 14:20:00,
2013-07-14 09:25:00,82.8,73.3,29.85,SSW,207,1.0,7.0,73,0.00,,SKC,0.00,VWS V14.01,2013-07-14 14:25:00,
2013-07-14 09:30:00,83.2,73.7,29.85,SSW,207,2.0,5.0,73,0.00,,SKC,0.00,VWS V14.01,2013-07-14 14:30:00,
2013-07-14 09:35:00,83.6,73.2,29.85,SSW,207,3.0,6.0,71,0.00,,SKC,0.00,VWS V14.01,2013-07-14 14:35:00,
2013-07-14 09:40:00,83.8,73.4,29.85,SSW,207,4.0,6.0,71,0.00,,SKC,0.00,VWS V14.01,2013-07-14 14:40:00,
2013-07-14 09:45:00,84.2,73.4,29.85,SSW,209,5.0,6.0,70,0.00,,SKC,0.00,VWS V14.01,2013-07-14 14:45:00,
2013-07-14 09:50:00,84.7,73.8,29.85,SSW,210,0.0,6.0,70,0.00,,SKC,0.00,VWS V14.01,2013-07-14 14:50:00,
2013-07-14 09:55:00,85.1,73.8,29.85,SSW,211,4.0,7.0,69,0.00,,SKC,0.00,VWS V14.01,2013-07-14 14:55:00,
2013-07-14 10:00:00,85.5,73.7,29.85,SSW,211,0.0,4.0,68,0.00,,SKC,0.00,VWS V14.01,2013-07-14 15:00:00,
2013-07-14 10:05:00,85.9,73.7,29.85,SSW,212,0.0,6.0,67,0.00,,SKC,0.00,VWS V14.01,2013-07-14 15:05:00,
2013-07-14 10:10:00,86.4,73.7,29.85,SSW,213,0.0,5.0,66,0.00,,SKC,0.00,VWS V14.01,2013-07-14 15:10:00,
2013-07-14 10:15:00,86.7,74.0,29.85,SSW,213,3.0,6.0,66,0.00,,SKC,0.00,VWS V14.01,2013-07-14 15:15:00,
2013-07-14 10:20:00,87.0,73.8,29.85,SSW,213,0.0,5.0,65,0.00,,SKC,0.00,VWS V14.01,2013-07-14 15:20:00,
2013-07-14 10:25:00,87.3,73.6,29.85,SW,221,0.0,5.0,64,0.00,,SKC,0.00,VWS V14.01,2013-07-14 15:25:00,
2013-07-14 10:30:00,87.6,73.0,29.85,SW,221,1.0,4.0,62,0.00,,SKC,0.00,VWS V14.01,2013-07-14 15:30:00,
2013-07-14 10:35:00,87.7,73.6,29.85,SW,221,5.0,8.0,63,0.00,,SKC,0.00,VWS V14.01,2013-07-14 15:35:00,
2013-07-14 10:40:00,88.0,73.4,29.85,SW,221,0.0,3.0,62,0.00,,SKC,0.00,VWS V14.01,2013-07-14 15:40:00,
2013-07-14 10:45:00,88.3,73.2,29.86,SW,221,0.0,3.0,61,0.00,,SKC,0.00,VWS V14.01,2013-07-14 15:45:00,
2013-07-14 10:50:00,89.0,73.3,29.86,SW,221,0.0,2.0,60,0.00,,SKC,0.00,VWS V14.01,2013-07-14 15:50:00,
2013-07-14 10:55:00,89.4,73.2,29.86,SW,221,0.0,3.0,59,0.00,,SKC,0.00,VWS V14.01,2013-07-14 15:55:00,
2013-07-14 11:00:00,90.0,73.2,29.86,SW,221,0.0,2.0,58,0.00,,SKC,0.00,VWS V14.01,2013-07-14 16:00:00,
2013-07-14 11:05:00,90.4,73.1,29.86,SW,221,0.0,3.0,57,0.00,,SKC,0.00,VWS V14.01,2013-07-14 16:05:00,
2013-07-14 11:10:00,90.8,72.4,29.86,SW,221,0.0,1.0,55,0.00,,SKC,0.00,VWS V14.01,2013-07-14 16:10:00,
2013-07-14 11:15:00,91.0,71.5,29.86,SW,221,1.0,6.0,53,0.00,,SKC,0.00,VWS V14.01,2013-07-14 16:15:00,
2013-07-14 11:20:00,91.0,70.9,29.86,SW,221,2.0,4.0,52,0.00,,SKC,0.00,VWS V14.01,2013-07-14 16:20:00,
2013-07-14 11:25:00,91.3,71.8,29.86,SW,221,0.0,4.0,53,0.00,,SKC,0.00,VWS V14.01,2013-07-14 16:25:00,
2013-07-14 11:30:00,91.7,71.0,29.86,SW,221,0.0,6.0,51,0.00,,SKC,0.00,VWS V14.01,2013-07-14 16:30:00,
2013-07-14 11:35:00,92.2,71.5,29.86,SW,218,0.0,6.0,51,0.00,,SKC,0.00,VWS V14.01,2013-07-14 16:35:00,
2013-07-14 11:40:00,92.5,70.6,29.86,SW,218,0.0,6.0,49,0.00,,SKC,0.00,VWS V14.01,2013-07-14 16:40:00,
2013-07-14 11:45:00,92.6,70.7,29.86,SW,225,0.0,6.0,49,0.00,,SKC,0.00,VWS V14.01,2013-07-14 16:45:00,
2013-07-14 11:50:00,92.9,72.1,29.86,SW,225,0.0,5.0,51,0.00,,SKC,0.00,VWS V14.01,2013-07-14 16:50:00,
2013-07-14 11:55:00,93.1,71.1,29.86,SW,219,0.0,9.0,49,0.00,,SKC,0.00,VWS V14.01,2013-07-14 16:55:00,
2013-07-14 12:00:00,93.2,71.8,29.86,SW,216,0.0,9.0,50,0.00,,SKC,0.00,VWS V14.01,2013-07-14 17:00:00,
2013-07-14 12:05:00,93.5,70.3,29.86,SW,217,1.0,9.0,47,0.00,,SKC,0.00,VWS V14.01,2013-07-14 17:05:00,
2013-07-14 12:10:00,93.8,70.5,29.86,SW,217,0.0,6.0,47,0.00,,SKC,0.00,VWS V14.01,2013-07-14 17:10:00,
2013-07-14 12:15:00,93.9,71.2,29.86,SW,217,0.0,6.0,48,0.00,,SKC,0.00,VWS V14.01,2013-07-14 17:15:00,
2013-07-14 12:20:00,94.2,70.3,29.86,SSW,211,0.0,7.0,46,0.00,,SKC,0.00,VWS V14.01,2013-07-14 17:20:00,
2013-07-14 12:25:00,94.5,69.9,29.86,SSW,211,0.0,7.0,45,0.00,,SKC,0.00,VWS V14.01,2013-07-14 17:25:00,
2013-07-14 12:30:00,94.6,70.6,29.86,SSW,211,0.0,7.0,46,0.00,,SKC,0.00,VWS V14.01,2013-07-14 17:30:00,
2013-07-14 12:35:00,95.0,70.3,29.85,SSW,208,1.0,7.0,45,0.00,,SKC,0.00,VWS V14.01,2013-07-14 17:35:00,
2013-07-14 12:40:00,95.5,71.4,29.85,SSW,208,0.0,4.0,46,0.00,,SKC,0.00,VWS V14.01,2013-07-14 17:40:00,
2013-07-14 12:45:00,95.7,69.6,29.85,SSW,207,0.0,5.0,43,0.00,,SKC,0.00,VWS V14.01,2013-07-14 17:45:00,
2013-07-14 12:50:00,95.9,69.8,29.85,SSW,205,0.0,7.0,43,0.00,,SKC,0.00,VWS V14.01,2013-07-14 17:50:00,
2013-07-14 12:55:00,96.1,70.0,29.85,SSW,205,0.0,7.0,43,0.00,,SKC,0.00,VWS V14.01,2013-07-14 17:55:00,
2013-07-14 13:00:00,96.2,71.4,29.85,SSW,213,0.0,9.0,45,0.00,,SKC,0.00,VWS V14.01,2013-07-14 18:00:00,
2013-07-14 13:05:00,96.5,71.0,29.84,SSW,213,0.0,9.0,44,0.00,,SKC,0.00,VWS V14.01,2013-07-14 18:05:00,
2013-07-14 13:10:00,96.7,69.8,29.84,SSW,213,0.0,5.0,42,0.00,,SKC,0.00,VWS V14.01,2013-07-14 18:10:00,
2013-07-14 13:15:00,96.9,68.6,29.84,SSW,212,0.0,6.0,40,0.00,,SKC,0.00,VWS V14.01,2013-07-14 18:15:00,
2013-07-14 13:20:00,97.1,69.5,29.84,SSW,209,0.0,4.0,41,0.00,,SKC,0.00,VWS V14.01,2013-07-14 18:20:00,
2013-07-14 13:25:00,97.3,69.0,29.83,SSW,209,1.0,4.0,40,0.00,,SKC,0.00,VWS V14.01,2013-07-14 18:25:00,
2013-07-14 13:30:00,97.3,69.0,29.83,SSW,209,6.0,6.0,40,0.00,,SKC,0.00,VWS V14.01,2013-07-14 18:30:00,
2013-07-14 13:35:00,97.4,69.1,29.83,SSW,203,5.0,7.0,40,0.00,,SKC,0.00,VWS V14.01,2013-07-14 18:35:00,
2013-07-14 13:40:00,97.7,70.0,29.83,SSW,192,2.0,7.0,41,0.00,,SKC,0.00,VWS V14.01,2013-07-14 18:40:00,
2013-07-14 13:45:00,98.0,70.3,29.83,South,190,0.0,7.0,41,0.00,,SKC,0.00,VWS V14.01,2013-07-14 18:45:00,
2013-07-14 13:50:00,98.3,69.1,29.82,SSW,192,5.0,8.0,39,0.00,,SKC,0.00,VWS V14.01,2013-07-14 18:50:00,
2013-07-14 13:55:00,98.4,69.2,29.82,South,191,0.0,9.0,39,0.00,,SKC,0.00,VWS V14.01,2013-07-14 18:55:00,
2013-07-14 14:00:00,98.3,69.1,29.82,South,181,4.0,8.0,39,0.00,,SKC,0.00,VWS V14.01,2013-07-14 19:00:00,
2013-07-14 14:05:00,98.2,69.0,29.82,South,178,4.0,10.0,39,0.00,,SKC,0.00,VWS V14.01,2013-07-14 19:05:00,
2013-07-14 14:10:00,98.1,68.9,29.81,South,171,0.0,6.0,39,0.00,,SKC,0.00,VWS V14.01,2013-07-14 19:10:00,
2013-07-14 14:15:00,98.2,69.8,29.82,South,171,4.0,7.0,40,0.00,,SKC,0.00,VWS V14.01,2013-07-14 19:15:00,
2013-07-14 14:20:00,98.5,67.8,29.81,South,172,2.0,5.0,37,0.00,,SKC,0.00,VWS V14.01,2013-07-14 19:20:00,
2013-07-14 14:25:00,98.7,67.9,29.81,South,169,0.0,6.0,37,0.00,,SKC,0.00,VWS V14.01,2013-07-14 19:25:00,
2013-07-14 14:30:00,98.8,68.8,29.81,South,169,1.0,7.0,38,0.00,,SKC,0.00,VWS V14.01,2013-07-14 19:30:00,
2013-07-14 14:35:00,99.1,69.1,29.80,SSE,163,0.0,8.0,38,0.00,,SKC,0.00,VWS V14.01,2013-07-14 19:35:00,
2013-07-14 14:40:00,99.1,67.5,29.80,SSE,164,2.0,6.0,36,0.00,,SKC,0.00,VWS V14.01,2013-07-14 19:40:00,
2013-07-14 14:45:00,99.1,69.1,29.79,SSE,162,4.0,9.0,38,0.00,,SKC,0.00,VWS V14.01,2013-07-14 19:45:00,
2013-07-14 14:50:00,99.3,68.5,29.79,SSE,155,2.0,15.0,37,0.00,,SKC,0.00,VWS V14.01,2013-07-14 19:50:00,
2013-07-14 14:55:00,99.4,67.8,29.79,SSE,157,2.0,15.0,36,0.00,,SKC,0.00,VWS V14.01,2013-07-14 19:55:00,
2013-07-14 15:00:00,99.5,67.0,29.79,SSE,157,0.0,8.0,35,0.00,,SKC,0.00,VWS V14.01,2013-07-14 20:00:00,
2013-07-14 15:05:00,99.6,67.1,29.79,South,176,0.0,12.0,35,0.00,,SKC,0.00,VWS V14.01,2013-07-14 20:05:00,
2013-07-14 15:10:00,99.7,68.8,29.79,South,177,4.0,5.0,37,0.00,,SKC,0.00,VWS V14.01,2013-07-14 20:10:00,
2013-07-14 15:15:00,99.9,68.2,29.79,South,175,2.0,5.0,36,0.00,,SKC,0.00,VWS V14.01,2013-07-14 20:15:00,
2013-07-14 15:20:00,99.5,67.0,29.79,South,176,2.0,7.0,35,0.00,,SKC,0.00,VWS V14.01,2013-07-14 20:20:00,
2013-07-14 15:25:00,98.9,66.5,29.79,South,173,0.0,7.0,35,0.00,,SKC,0.00,VWS V14.01,2013-07-14 20:25:00,
2013-07-14 15:30:00,98.3,66.8,29.79,South,173,3.0,7.0,36,0.00,,SKC,0.00,VWS V14.01,2013-07-14 20:30:00,
2013-07-14 15:35:00,97.9,67.2,29.79,South,173,0.0,7.0,37,0.00,,SKC,0.00,VWS V14.01,2013-07-14 20:35:00,
2013-07-14 15:40:00,98.0,67.3,29.79,South,173,0.0,6.0,37,0.00,,SKC,0.00,VWS V14.01,2013-07-14 20:40:00,
2013-07-14 15:45:00,98.2,67.5,29.80,South,173,0.0,6.0,37,0.00,,SKC,0.00,VWS V14.01,2013-07-14 20:45:00,
2013-07-14 15:50:00,98.1,71.1,29.82,NE,43,10.0,22.0,42,0.00,,SKC,0.00,VWS V14.01,2013-07-14 20:50:00,
2013-07-14 15:55:00,93.8,70.5,29.82,NE,35,8.0,22.0,47,0.00,,SKC,0.00,VWS V14.01,2013-07-14 20:55:00,
2013-07-14 16:00:00,89.4,70.6,29.81,NE,39,4.0,21.0,54,0.00,,SKC,0.00,VWS V14.01,2013-07-14 21:00:00,
2013-07-14 16:05:00,86.7,70.7,29.81,NE,42,6.0,21.0,59,0.00,,SKC,0.00,VWS V14.01,2013-07-14 21:05:00,
2013-07-14 16:10:00,85.2,70.2,29.81,NE,39,3.0,11.0,61,0.00,,SKC,0.00,VWS V14.01,2013-07-14 21:10:00,
2013-07-14 16:15:00,84.1,70.2,29.80,NNE,21,2.0,19.0,63,0.00,,SKC,0.00,VWS V14.01,2013-07-14 21:15:00,
2013-07-14 16:20:00,83.2,70.7,29.81,NE,40,8.0,12.0,66,0.00,,SKC,0.00,VWS V14.01,2013-07-14 21:20:00,
2013-07-14 16:25:00,82.5,70.9,29.80,NE,49,4.0,12.0,68,0.00,,SKC,0.00,VWS V14.01,2013-07-14 21:25:00,
2013-07-14 16:30:00,82.0,70.8,29.80,NE,43,0.0,7.0,69,0.00,,SKC,0.00,VWS V14.01,2013-07-14 21:30:00,
2013-07-14 16:35:00,81.7,70.6,29.80,NE,47,2.0,8.0,69,0.00,,SKC,0.00,VWS V14.01,2013-07-14 21:35:00,
2013-07-14 16:40:00,81.5,70.4,29.80,ENE,77,9.0,11.0,69,0.00,,SKC,0.00,VWS V14.01,2013-07-14 21:40:00,
2013-07-14 16:45:00,81.4,70.3,29.80,ENE,71,5.0,11.0,69,0.00,,SKC,0.00,VWS V14.01,2013-07-14 21:45:00,
2013-07-14 16:50:00,81.1,70.8,29.80,East,88,1.0,12.0,71,0.00,,SKC,0.00,VWS V14.01,2013-07-14 21:50:00,
2013-07-14 16:55:00,80.6,69.9,29.80,ENE,71,8.0,14.0,70,0.00,,SKC,0.00,VWS V14.01,2013-07-14 21:55:00,
2013-07-14 17:00:00,80.1,69.9,29.80,NE,53,0.0,12.0,71,0.00,,SKC,0.00,VWS V14.01,2013-07-14 22:00:00,
2013-07-14 17:05:00,79.9,70.1,29.80,NE,42,7.0,12.0,72,0.00,,SKC,0.00,VWS V14.01,2013-07-14 22:05:00,
2013-07-14 17:10:00,80.0,69.8,29.80,ENE,65,0.0,10.0,71,0.00,,SKC,0.00,VWS V14.01,2013-07-14 22:10:00,
2013-07-14 17:15:00,80.1,69.4,29.80,ENE,65,5.0,12.0,70,0.00,,SKC,0.00,VWS V14.01,2013-07-14 22:15:00,
2013-07-14 17:20:00,80.1,69.0,29.80,NE,55,0.0,12.0,69,0.00,,SKC,0.00,VWS V14.01,2013-07-14 22:20:00,
2013-07-14 17:25:00,80.4,68.4,29.80,ENE,59,3.0,12.0,67,0.00,,SKC,0.00,VWS V14.01,2013-07-14 22:25:00,
2013-07-14 17:30:00,80.7,67.8,29.80,ENE,69,0.0,7.0,65,0.00,,SKC,0.00,VWS V14.01,2013-07-14 22:30:00,
2013-07-14 17:35:00,81.0,67.7,29.80,East,81,3.0,9.0,64,0.00,,SKC,0.00,VWS V14.01,2013-07-14 22:35:00,
2013-07-14 17:40:00,80.9,68.5,29.81,ENE,76,0.0,12.0,66,0.00,,SKC,0.00,VWS V14.01,2013-07-14 22:40:00,
2013-07-14 17:45:00,80.8,68.8,29.80,ENE,67,0.0,12.0,67,0.00,,SKC,0.00,VWS V14.01,2013-07-14 22:45:00,
2013-07-14 17:50:00,80.5,68.5,29.80,East,82,0.0,14.0,67,0.00,,SKC,0.00,VWS V14.01,2013-07-14 22:50:00,
2013-07-14 17:55:00,80.2,68.7,29.80,East,89,0.0,15.0,68,0.00,,SKC,0.00,VWS V14.01,2013-07-14 22:55:00,
2013-07-14 18:00:00,80.1,68.6,29.80,ESE,111,5.0,11.0,68,0.00,,SKC,0.00,VWS V14.01,2013-07-14 23:00:00,
2013-07-14 18:05:00,80.0,68.9,29.80,East,101,1.0,13.0,69,0.00,,SKC,0.00,VWS V14.01,2013-07-14 23:05:00,
2013-07-14 18:10:00,80.1,69.0,29.80,ESE,107,5.0,11.0,69,0.00,,SKC,0.00,VWS V14.01,2013-07-14 23:10:00,
2013-07-14 18:15:00,80.3,69.2,29.80,ESE,109,4.0,11.0,69,0.00,,SKC,0.00,VWS V14.01,2013-07-14 23:15:00,
2013-07-14 18:20:00,80.6,68.6,29.80,ESE,113,3.0,12.0,67,0.00,,SKC,0.00,VWS V14.01,2013-07-14 23:20:00,
2013-07-14 18:25:00,80.8,68.4,29.80,East,79,2.0,12.0,66,0.00,,SKC,0.00,VWS V14.01,2013-07-14 23:25:00,
2013-07-14 18:30:00,80.9,68.0,29.80,ENE,78,0.0,9.0,65,0.00,,SKC,0.00,VWS V14.01,2013-07-14 23:30:00,
2013-07-14 18:35:00,80.9,68.0,29.79,East,101,5.0,12.0,65,0.00,,SKC,0.00,VWS V14.01,2013-07-14 23:35:00,
2013-07-14 18:40:00,80.6,68.2,29.80,ESE,103,4.0,8.0,66,0.00,,SKC,0.00,VWS V14.01,2013-07-14 23:40:00,
2013-07-14 18:45:00,80.4,68.9,29.80,East,92,0.0,8.0,68,0.00,,SKC,0.00,VWS V14.01,2013-07-14 23:45:00,
2013-07-14 18:50:00,80.3,68.8,29.81,East,88,0.0,5.0,68,0.00,,SKC,0.00,VWS V14.01,2013-07-14 23:50:00,
2013-07-14 18:55:00,80.2,69.1,29.81,East,81,0.0,8.0,69,0.00,,SKC,0.00,VWS V14.01,2013-07-14 23:55:00,
2013-07-14 19:00:00,80.2,69.1,29.81,East,90,0.0,6.0,69,0.00,,SKC,0.00,VWS V14.01,2013-07-15 00:00:00,
2013-07-14 19:05:00,80.2,69.1,29.81,East,96,0.0,8.0,69,0.00,,SKC,0.00,VWS V14.01,2013-07-15 00:05:00,
2013-07-14 19:10:00,80.3,69.6,29.82,East,100,0.0,5.0,70,0.00,,SKC,0.00,VWS V14.01,2013-07-15 00:10:00,
2013-07-14 19:15:00,80.4,69.3,29.82,ESE,111,0.0,8.0,69,0.00,,SKC,0.00,VWS V14.01,2013-07-15 00:15:00,
2013-07-14 19:20:00,80.3,69.2,29.82,ESE,109,0.0,3.0,69,0.00,,SKC,0.00,VWS V14.01,2013-07-15 00:20:00,
2013-07-14 19:25:00,80.3,69.2,29.82,ESE,102,0.0,5.0,69,0.00,,SKC,0.00,VWS V14.01,2013-07-15 00:25:00,
2013-07-14 19:30:00,80.2,69.5,29.82,ESE,103,0.0,1.0,70,0.00,,SKC,0.00,VWS V14.01,2013-07-15 00:30:00,
2013-07-14 19:35:00,80.2,69.5,29.82,ESE,103,0.0,5.0,70,0.00,,SKC,0.00,VWS V14.01,2013-07-15 00:35:00,
2013-07-14 19:40:00,80.1,69.9,29.82,ESE,103,1.0,2.0,71,0.00,,SKC,0.00,VWS V14.01,2013-07-15 00:40:00,
2013-07-14 19:45:00,80.0,69.8,29.82,ESE,103,0.0,2.0,71,0.00,,SKC,0.00,VWS V14.01,2013-07-15 00:45:00,
2013-07-14 19:50:00,79.8,69.6,29.82,East,101,0.0,5.0,71,0.00,,SKC,0.00,VWS V14.01,2013-07-15 00:50:00,
2013-07-14 19:55:00,79.7,69.9,29.82,East,100,0.0,5.0,72,0.00,,SKC,0.00,VWS V14.01,2013-07-15 00:55:00,
2013-07-14 20:00:00,79.6,69.8,29.82,East,101,1.0,5.0,72,0.00,,SKC,0.00,VWS V14.01,2013-07-15 01:00:00,
2013-07-14 20:05:00,79.4,69.6,29.82,East,101,0.0,5.0,72,0.00,,SKC,0.00,VWS V14.01,2013-07-15 01:05:00,
2013-07-14 20:10:00,79.2,69.4,29.82,East,100,0.0,5.0,72,0.00,,SKC,0.00,VWS V14.01,2013-07-15 01:10:00,
2013-07-14 20:15:00,79.1,69.7,29.82,ESE,104,0.0,8.0,73,0.00,,SKC,0.00,VWS V14.01,2013-07-15 01:15:00,
2013-07-14 20:20:00,78.9,69.5,29.82,ESE,103,4.0,4.0,73,0.00,,SKC,0.00,VWS V14.01,2013-07-15 01:20:00,
2013-07-14 20:25:00,78.8,69.4,29.82,ESE,105,3.0,7.0,73,0.00,,SKC,0.00,VWS V14.01,2013-07-15 01:25:00,
2013-07-14 20:30:00,78.6,69.6,29.82,ESE,102,0.0,5.0,74,0.00,,SKC,0.00,VWS V14.01,2013-07-15 01:30:00,
2013-07-14 20:35:00,78.5,69.5,29.82,ESE,103,0.0,5.0,74,0.00,,SKC,0.00,VWS V14.01,2013-07-15 01:35:00,
2013-07-14 20:40:00,78.4,69.4,29.83,ESE,103,0.0,4.0,74,0.00,,SKC,0.00,VWS V14.01,2013-07-15 01:40:00,
2013-07-14 20:45:00,78.2,69.6,29.83,East,101,5.0,5.0,75,0.00,,SKC,0.00,VWS V14.01,2013-07-15 01:45:00,
2013-07-14 20:50:00,78.0,69.8,29.82,East,86,0.0,9.0,76,0.00,,SKC,0.00,VWS V14.01,2013-07-15 01:50:00,
2013-07-14 20:55:00,77.8,69.6,29.82,East,98,6.0,14.0,76,0.00,,SKC,0.00,VWS V14.01,2013-07-15 01:55:00,
2013-07-14 21:00:00,77.5,69.7,29.82,ESE,109,4.0,10.0,77,0.00,,SKC,0.00,VWS V14.01,2013-07-15 02:00:00,
2013-07-14 21:05:00,77.3,69.9,29.82,East,101,0.0,10.0,78,0.00,,SKC,0.00,VWS V14.01,2013-07-15 02:05:00,
2013-07-14 21:10:00,77.1,70.1,29.82,ESE,106,0.0,8.0,79,0.00,,SKC,0.00,VWS V14.01,2013-07-15 02:10:00,
2013-07-14 21:15:00,76.9,69.9,29.82,ESE,105,0.0,8.0,79,0.00,,SKC,0.00,VWS V14.01,2013-07-15 02:15:00,
2013-07-14 21:20:00,76.7,70.1,29.81,ESE,105,0.0,5.0,80,0.00,,SKC,0.00,VWS V14.01,2013-07-15 02:20:00,
2013-07-14 21:25:00,76.6,70.3,29.82,ESE,104,0.0,5.0,81,0.00,,SKC,0.00,VWS V14.01,2013-07-15 02:25:00,
2013-07-14 21:30:00,76.5,70.2,29.82,ESE,104,0.0,2.0,81,0.00,,SKC,0.00,VWS V14.01,2013-07-15 02:30:00,
2013-07-14 21:35:00,76.3,70.4,29.82,ESE,104,0.0,2.0,82,0.00,,SKC,0.00,VWS V14.01,2013-07-15 02:35:00,
2013-07-14 21:40:00,76.2,70.3,29.82,ESE,104,0.0,0.0,82,0.00,,SKC,0.00,VWS V14.01,2013-07-15 02:40:00,
2013-07-14 21:45:00,76.1,70.2,29.82,ESE,104,0.0,0.0,82,0.00,,SKC,0.00,VWS V14.01,2013-07-15 02:45:00,
2013-07-14 21:50:00,76.0,70.1,29.82,ESE,104,0.0,0.0,82,0.00,,SKC,0.00,VWS V14.01,2013-07-15 02:50:00,
2013-07-14 21:55:00,75.9,70.4,29.82,ESE,104,0.0,0.0,83,0.00,,SKC,0.00,VWS V14.01,2013-07-15 02:55:00,
2013-07-14 22:00:00,75.8,70.3,29.82,ESE,104,0.0,0.0,83,0.00,,SKC,0.00,VWS V14.01,2013-07-15 03:00:00,
2013-07-14 22:05:00,75.7,70.5,29.82,ESE,104,0.0,1.0,84,0.00,,SKC,0.00,VWS V14.01,2013-07-15 03:05:00,
2013-07-14 22:10:00,75.6,70.4,29.82,ESE,104,0.0,0.0,84,0.00,,SKC,0.00,VWS V14.01,2013-07-15 03:10:00,
2013-07-14 22:15:00,75.5,70.3,29.83,ESE,104,0.0,0.0,84,0.00,,SKC,0.00,VWS V14.01,2013-07-15 03:15:00,
2013-07-14 22:20:00,75.4,70.6,29.83,ESE,104,0.0,0.0,85,0.00,,SKC,0.00,VWS V14.01,2013-07-15 03:20:00,
2013-07-14 22:25:00,75.4,70.6,29.83,ESE,104,0.0,1.0,85,0.00,,SKC,0.00,VWS V14.01,2013-07-15 03:25:00,
2013-07-14 22:30:00,75.3,70.5,29.83,ESE,104,0.0,1.0,85,0.00,,SKC,0.00,VWS V14.01,2013-07-15 03:30:00,
2013-07-14 22:35:00,75.2,70.4,29.83,ESE,104,0.0,1.0,85,0.00,,SKC,0.00,VWS V14.01,2013-07-15 03:35:00,
2013-07-14 22:40:00,75.1,70.3,29.84,ESE,104,0.0,0.0,85,0.00,,SKC,0.00,VWS V14.01,2013-07-15 03:40:00,
2013-07-14 22:45:00,75.1,70.6,29.84,ESE,104,0.0,1.0,86,0.00,,SKC,0.00,VWS V14.01,2013-07-15 03:45:00,
2013-07-14 22:50:00,75.1,70.6,29.83,ESE,104,0.0,1.0,86,0.00,,SKC,0.00,VWS V14.01,2013-07-15 03:50:00,
2013-07-14 22:55:00,75.1,70.6,29.83,ESE,104,0.0,1.0,86,0.00,,SKC,0.00,VWS V14.01,2013-07-15 03:55:00,
2013-07-14 23:00:00,75.0,70.5,29.83,ESE,104,0.0,0.0,86,0.00,,SKC,0.00,VWS V14.01,2013-07-15 04:00:00,
2013-07-14 23:01:00,75.0,70.5,29.83,ESE,104,0.0,1.0,86,0.00,,SKC,0.00,VWS V14.01,2013-07-15 04:01:00,
2013-07-14 23:06:00,75.0,70.5,29.83,ESE,104,0.0,0.0,86,0.00,,SKC,0.00,VWS V14.01,2013-07-15 04:06:00,
2013-07-14 23:10:00,75.0,70.5,29.83,ESE,104,0.0,1.0,86,0.00,,SKC,0.00,VWS V14.01,2013-07-15 04:10:00,
2013-07-14 23:11:00,74.9,70.4,29.84,ESE,104,0.0,0.0,86,0.00,,SKC,0.00,VWS V14.01,2013-07-15 04:11:00,
2013-07-14 23:16:00,74.9,70.4,29.84,ESE,104,0.0,0.0,86,0.00,,SKC,0.00,VWS V14.01,2013-07-15 04:16:00,
2013-07-14 23:20:00,74.8,70.3,29.84,ESE,104,0.0,0.0,86,0.00,,SKC,0.00,VWS V14.01,2013-07-15 04:20:00,
2013-07-14 23:21:00,74.8,70.3,29.85,ESE,104,0.0,0.0,86,0.00,,SKC,0.00,VWS V14.01,2013-07-15 04:21:00,
2013-07-14 23:26:00,74.7,70.2,29.85,ESE,104,0.0,0.0,86,0.00,,SKC,0.00,VWS V14.01,2013-07-15 04:26:00,
2013-07-14 23:30:00,74.7,70.2,29.85,ESE,104,0.0,0.0,86,0.00,,SKC,0.00,VWS V14.01,2013-07-15 04:30:00,
2013-07-14 23:31:00,74.7,70.6,29.85,ESE,104,0.0,1.0,87,0.00,,SKC,0.00,VWS V14.01,2013-07-15 04:31:00,
2013-07-14 23:36:00,74.7,70.6,29.85,ESE,104,0.0,1.0,87,0.00,,SKC,0.00,VWS V14.01,2013-07-15 04:36:00,
2013-07-14 23:40:00,74.7,70.6,29.85,ESE,104,0.0,1.0,87,0.00,,SKC,0.00,VWS V14.01,2013-07-15 04:40:00,
2013-07-14 23:41:00,74.7,70.6,29.85,ESE,104,0.0,0.0,87,0.00,,SKC,0.00,VWS V14.01,2013-07-15 04:41:00,
2013-07-14 23:46:00,74.7,70.6,29.85,ESE,104,0.0,0.0,87,0.00,,SKC,0.00,VWS V14.01,2013-07-15 04:46:00,
2013-07-14 23:50:00,74.7,70.6,29.85,ESE,104,0.0,0.0,87,0.00,,SKC,0.00,VWS V14.01,2013-07-15 04:50:00,
2013-07-14 23:51:00,74.7,70.6,29.85,ESE,104,0.0,0.0,87,0.00,,SKC,0.00,VWS V14.01,2013-07-15 04:51:00,
2013-07-14 23:56:00,74.7,70.6,29.85,ESE,104,0.0,0.0,87,0.00,,SKC,0.00,VWS V14.01,2013-07-15 04:56:00,